Погода в Игриме

Россия / Ханты-Мансийский автономный округ - Югра     63°11′46″N   64°25′18″E
темп.,
°C
ветер,
м/с
пор.,
м/с
влажн.,
%
обл.,
%
осадки,
мм/ч
давл.,
гПа
погр.,
м
27 января, чт
чт2723:00−13ююз399373 0.0 1016157
02:00−14ю3794100 0.0 1016128
05:00−17ю2598100 0.0 101671
08:00−20ю2510089 0.0 101578
11:00−20ююв2699100 0.0 101391
14:00−14ю279646 0.0 1012212
17:00−18ю11100100 0.0 101213
20:00−15юз269883 0.1 1012160
28 января, пт
пт2823:00−17ююз2499100 0.1 101277
02:00−15ююз269798 0.1 1013136
05:00−15юз279593 0.1 1014188
08:00−22юз2210023 0.0 101520
11:00−22юз259915 0.0 101668
14:00−18юз249540 0.0 1017108
17:00−23юз2210059 0.0 101915
20:00−25ююз2210039 0.0 101915
29 января, сб
сб2923:00−25ююз2210086 0.0 101922
02:00−20ююз2597100 0.0 102094
05:00−20ю269798 0.0 102094
08:00−23ю259995 0.0 102068
11:00−22ю2698100 0.0 1020103
14:00−17ю269347 0.0 1020149
17:00−20ю259740 0.0 102072
20:00−19ю259899 0.0 102078
30 января, вс
вс3023:00−18ю269896 0.0 101993
02:00−13ююв3894100 0.0 1018173
05:00−12ююв3994100 0.0 1017249
08:00−12ююв31094100 0.0 1016266
11:00−12ююв31094100 0.0 1016297
14:00−11ююв3995100 0.0 1015325
17:00−12юв3895100 0.0 1015211
20:00−13юв2895100 0.0 1014193
31 января, пн
пн3123:00−14вюв2498100 0.0 101384
02:00−15юв1398100 0.0 101352
05:00−15вюв1198100 0.0 101320
08:00−17ююв1298100 0.0 101339
11:00−15ю139678 0.0 101492
14:00−14ююв1397100 0.0 1014104
17:00−17ююв129872 0.0 101529
20:00−17ююв119964 0.0 101617